PEGASUS R/B

基本信息
目录编号:
69793
目录名称:
PEGASUS R/B
国际标识:
2026-152B
轨道中心:
EARTH
物体状态:
在轨
发射日期:
2026-07-03 UTC
国别:
美国 (US)
轨道信息
数据来源: 国际轨道数据
星历时间: 2026-09-04T18:13:48+0800
半长轴: 6735.767km
偏心率: 0.0018188
轨道倾角: 20.597°
近地点辐角: 344.035°
升交点赤经: 293.046°
平近点角: 15.953°
近地点: 345.378km
远地点: 369.882km
周期: 91.694分钟
每日圈数: 15.704431
详细信息
发射场:
KWAJL
轨道高度:
LEO
数据来源:
AOE Working Group
参考系:
TEME
时间系统:
UTC
历元类型:
SGP4
2D轨道图
3D轨道图
轨道高度分析图
轨道倾角分析图
轨道综合分析图
查看轨道综合分析图